Location: The Jewett Observatory
(46.7288°N, 117.1525°W)
Time: 10:55:43
(UTC-07:00)

Cosmos 1633 - Visible Passes

Search period start: 28 April 2017 00:00
Search period end: 08 May 2017 00:00
Orbit: 471 x 490 km, 82.5° (Epoch: 26 April)

Date Brightness Start Highest point End Pass type
(mag) Time Alt. Az. Time Alt. Az. Time Alt. Az.
28 Apr 4.5 21:10:18 10° NNE 21:12:31 15° ENE 21:13:34 14° E visible
28 Apr 3.5 22:44:15 10° NNW 22:47:44 41° W 22:47:52 40° W visible
29 Apr 2.7 22:18:10 10° NNW 22:21:51 70° W 22:22:24 58° SSW visible
30 Apr 2.5 21:52:14 10° N 21:55:55 69° E 21:56:56 44° SSE visible
01 May 3.1 21:26:25 10° N 21:29:55 41° ENE 21:31:29 26° SE visible
01 May 5.1 23:02:29 10° NW 23:04:33 14° W 23:05:48 13° WSW visible
02 May 3.8 21:00:44 10° NNE 21:03:53 26° ENE 21:06:04 15° ESE visible
02 May 4.7 22:35:50 10° NW 22:38:45 22° W 22:40:22 17° SW visible
03 May 4.4 20:35:17 10° NNE 20:37:47 17° ENE 20:40:16 10° ESE visible
03 May 3.9 22:09:30 10° NNW 22:12:55 36° W 22:14:57 20° SSW visible
04 May 3.0 21:43:22 10° NNW 21:47:02 60° W 21:49:34 18° S visible
05 May 2.5 21:17:23 10° N 21:21:05 80° E 21:24:13 14° SSE visible
06 May 3.0 20:51:30 10° N 20:55:05 47° ENE 20:58:39 10° SSE visible
06 May 5.4 22:27:55 10° WNW 22:29:38 13° W 22:31:21 10° WSW visible
07 May 5.0 22:01:04 10° NW 22:03:50 20° W 22:06:35 10° SW visible
